• In Deutschland
  • Länderverzeichnis
  • Für 7 Tage
  • Wassertemperatur
  • Satellitenkarten
  • Wetterkarte
  • Widgets
  • user-avatar
    Anmelden

    Stündliche Wetter Tibissa

    Heute, 25 September, Dienstag

    Zeit Temperatur Niederschläge Wind Luftdruck Luftfeuchtigkeit
    00:00 +23°C° 0 mm 2 m/S 690 mmHg 63%
    01:00 +22°C° 0 mm 1 m/S 689 mmHg 67%
    02:00 +22°C° 0 mm 1 m/S 689 mmHg 68%
    03:00 +22°C° 0 mm 1 m/S 689 mmHg 69%
    04:00 +21°C° 0 mm 1 m/S 689 mmHg 70%
    05:00 +21°C° 0 mm 1 m/S 689 mmHg 71%
    06:00 +21°C° 0 mm 1 m/S 689 mmHg 71%
    07:00 +21°C° 0 mm 1 m/S 689 mmHg 71%
    08:00 +22°C° 0 mm 1 m/S 690 mmHg 66%
    09:00 +23°C° 0 mm 1 m/S 690 mmHg 60%
    10:00 +24°C° 0 mm 1 m/S 690 mmHg 55%
    11:00 +25°C° 0 mm 1 m/S 690 mmHg 50%
    12:00 +26°C° 0 mm 2 m/S 690 mmHg 45%
    13:00 +27°C° 0 mm 2 m/S 691 mmHg 40%
    14:00 +28°C° 0 mm 2 m/S 690 mmHg 39%
    15:00 +28°C° 0 mm 3 m/S 690 mmHg 38%
    16:00 +28°C° 0 mm 3 m/S 690 mmHg 37%
    17:00 +27°C° 0.1 mm 3 m/S 690 mmHg 40%
    18:00 +27°C° 0.1 mm 3 m/S 690 mmHg 43%
    19:00 +26°C° 0.1 mm 3 m/S 690 mmHg 46%
    20:00 +25°C° 0.1 mm 3 m/S 690 mmHg 51%
    21:00 +24°C° 0.1 mm 3 m/S 690 mmHg 56%
    22:00 +24°C° 0.1 mm 3 m/S 690 mmHg 61%
    23:00 +22°C° 0.4 mm 3 m/S 690 mmHg 65%

    Morgen, 26 September, Mittwoch

    Zeit Temperatur Niederschläge Wind Luftdruck Luftfeuchtigkeit
    00:00 +21°C° 0.4 mm 3 m/S 690 mmHg 68%
    01:00 +21°C° 0.4 mm 3 m/S 690 mmHg 72%
    02:00 +20°C° 0.4 mm 3 m/S 690 mmHg 74%
    03:00 +20°C° 0.4 mm 2 m/S 690 mmHg 76%
    04:00 +20°C° 0.4 mm 2 m/S 690 mmHg 78%
    05:00 +19°C° 0.1 mm 2 m/S 690 mmHg 79%
    06:00 +19°C° 0.1 mm 2 m/S 690 mmHg 79%
    07:00 +19°C° 0.1 mm 2 m/S 690 mmHg 80%
    08:00 +20°C° 0 mm 3 m/S 691 mmHg 73%
    09:00 +21°C° 0 mm 3 m/S 691 mmHg 66%
    10:00 +22°C° 0 mm 4 m/S 692 mmHg 60%
    11:00 +23°C° 0.1 mm 4 m/S 692 mmHg 55%
    12:00 +25°C° 0.1 mm 5 m/S 692 mmHg 51%
    13:00 +25°C° 0.1 mm 5 m/S 692 mmHg 46%
    14:00 +24°C° 0.2 mm 6 m/S 692 mmHg 49%
    15:00 +24°C° 0.2 mm 6 m/S 691 mmHg 52%
    16:00 +23°C° 0.2 mm 7 m/S 691 mmHg 54%
    17:00 +22°C° 0.2 mm 7 m/S 691 mmHg 60%
    18:00 +21°C° 0.2 mm 7 m/S 691 mmHg 66%
    19:00 +20°C° 0.2 mm 7 m/S 692 mmHg 72%
    20:00 +20°C° 0.2 mm 7 m/S 692 mmHg 74%
    21:00 +19°C° 0.2 mm 6 m/S 692 mmHg 76%
    22:00 +19°C° 0.2 mm 6 m/S 693 mmHg 77%
    23:00 +19°C° 0 mm 5 m/S 693 mmHg 76%

    übermorgen, 27 September, Donnerstag

    Zeit Temperatur Niederschläge Wind Luftdruck Luftfeuchtigkeit
    00:00 +17°C° 0 mm 5 m/S 693 mmHg 74%
    01:00 +17°C° 0 mm 5 m/S 693 mmHg 73%
    02:00 +17°C° 0 mm 4 m/S 692 mmHg 72%
    03:00 +15°C° 0 mm 4 m/S 692 mmHg 71%
    04:00 +15°C° 0 mm 4 m/S 692 mmHg 69%
    05:00 +14°C° 0 mm 4 m/S 692 mmHg 69%
    06:00 +13°C° 0 mm 4 m/S 692 mmHg 70%
    07:00 +13°C° 0 mm 3 m/S 691 mmHg 70%
    08:00 +14°C° 0 mm 4 m/S 692 mmHg 63%
    09:00 +15°C° 0 mm 4 m/S 692 mmHg 56%
    10:00 +18°C° 0 mm 4 m/S 693 mmHg 49%
    11:00 +19°C° 0 mm 4 m/S 693 mmHg 45%
    12:00 +20°C° 0 mm 4 m/S 693 mmHg 41%
    13:00 +21°C° 0 mm 4 m/S 693 mmHg 37%
    14:00 +22°C° 0 mm 4 m/S 692 mmHg 35%
    15:00 +22°C° 0 mm 4 m/S 692 mmHg 33%
    16:00 +22°C° 0 mm 4 m/S 691 mmHg 32%
    17:00 +22°C° 0 mm 4 m/S 691 mmHg 33%
    18:00 +21°C° 0 mm 4 m/S 691 mmHg 35%
    19:00 +20°C° 0 mm 4 m/S 691 mmHg 37%
    20:00 +20°C° 0 mm 3 m/S 691 mmHg 40%
    21:00 +19°C° 0 mm 3 m/S 691 mmHg 44%
    22:00 +18°C° 0 mm 3 m/S 691 mmHg 47%
    23:00 +18°C° 0 mm 2 m/S 691 mmHg 50%

    28 September, Freitag

    Zeit Temperatur Niederschläge Wind Luftdruck Luftfeuchtigkeit
    00:00 +17°C° 0 mm 2 m/S 690 mmHg 53%
    01:00 +18°C° 0 mm 1 m/S 690 mmHg 57%
    02:00 +16°C° 0 mm 1 m/S 690 mmHg 59%
    03:00 +16°C° 0 mm 1 m/S 689 mmHg 61%
    04:00 +15°C° 0 mm 1 m/S 689 mmHg 63%
    05:00 +15°C° 0 mm 1 m/S 689 mmHg 62%
    06:00 +15°C° 0 mm 1 m/S 689 mmHg 62%
    07:00 +14°C° 0 mm 0 m/S 689 mmHg 61%
    08:00 +18°C° 0 mm 1 m/S 689 mmHg 56%
    09:00 +19°C° 0 mm 1 m/S 689 mmHg 50%
    10:00 +19°C° 0 mm 2 m/S 689 mmHg 44%
    11:00 +20°C° 0 mm 2 m/S 689 mmHg 38%
    12:00 +22°C° 0 mm 3 m/S 689 mmHg 32%
    13:00 +24°C° 0 mm 3 m/S 689 mmHg 26%
    14:00 +24°C° 0 mm 3 m/S 688 mmHg 24%
    15:00 +25°C° 0 mm 3 m/S 688 mmHg 23%
    16:00 +25°C° 0 mm 4 m/S 688 mmHg 21%
    17:00 +24°C° 0 mm 3 m/S 688 mmHg 24%
    18:00 +22°C° 0 mm 3 m/S 687 mmHg 27%
    19:00 +23°C° 0 mm 2 m/S 687 mmHg 30%
    20:00 +21°C° 0 mm 2 m/S 688 mmHg 33%
    21:00 +20°C° 0 mm 2 m/S 688 mmHg 37%
    22:00 +20°C° 0 mm 1 m/S 688 mmHg 40%
    23:00 +20°C° 0 mm 1 m/S 687 mmHg 43%

    29 September, Samstag

    Zeit Temperatur Niederschläge Wind Luftdruck Luftfeuchtigkeit
    00:00 +19°C° 0 mm 1 m/S 687 mmHg 46%
    01:00 +17°C° 0 mm 0 m/S 687 mmHg 49%
    02:00 +18°C° 0 mm 1 m/S 686 mmHg 51%
    03:00 +18°C° 0 mm 1 m/S 686 mmHg 53%
    04:00 +18°C° 0 mm 1 m/S 686 mmHg 54%
    05:00 +18°C° 0 mm 1 m/S 686 mmHg 54%
    06:00 +18°C° 0 mm 1 m/S 686 mmHg 54%
    07:00 +18°C° 0 mm 1 m/S 686 mmHg 55%
    08:00 +19°C° 0 mm 1 m/S 687 mmHg 49%
    09:00 +20°C° 0 mm 2 m/S 687 mmHg 43%
    10:00 +21°C° 0 mm 2 m/S 688 mmHg 37%
    11:00 +23°C° 0 mm 2 m/S 687 mmHg 34%
    12:00 +25°C° 0 mm 2 m/S 687 mmHg 30%
    13:00 +26°C° 0 mm 3 m/S 687 mmHg 26%
    14:00 +26°C° 0 mm 2 m/S 687 mmHg 25%
    15:00 +26°C° 0 mm 2 m/S 687 mmHg 24%
    16:00 +27°C° 0 mm 2 m/S 687 mmHg 23%
    17:00 +26°C° 0 mm 2 m/S 687 mmHg 25%
    18:00 +25°C° 0 mm 2 m/S 687 mmHg 27%
    19:00 +24°C° 0 mm 3 m/S 687 mmHg 30%
    20:00 +24°C° 0 mm 2 m/S 687 mmHg 33%
    21:00 +23°C° 0 mm 2 m/S 687 mmHg 35%
    22:00 +21°C° 0 mm 2 m/S 687 mmHg 38%
    23:00 +20°C° 0 mm 2 m/S 687 mmHg 41%

    30 September, Sonntag

    Zeit Temperatur Niederschläge Wind Luftdruck Luftfeuchtigkeit
    00:00 +21°C° 0 mm 1 m/S 687 mmHg 44%
    01:00 +20°C° 0 mm 1 m/S 687 mmHg 46%
    02:00 +20°C° 0 mm 1 m/S 686 mmHg 48%
    03:00 +20°C° 0 mm 1 m/S 686 mmHg 49%
    04:00 +19°C° 0 mm 1 m/S 686 mmHg 51%
    05:00 +19°C° 0 mm 1 m/S 686 mmHg 51%
    06:00 +19°C° 0 mm 1 m/S 686 mmHg 51%
    07:00 +18°C° 0 mm 2 m/S 686 mmHg 51%
    08:00 +20°C° 0 mm 2 m/S 687 mmHg 45%
    09:00 +22°C° 0 mm 3 m/S 687 mmHg 40%
    10:00 +25°C° 0 mm 3 m/S 688 mmHg 35%
    11:00 +26°C° 0 mm 3 m/S 688 mmHg 32%
    12:00 +27°C° 0 mm 4 m/S 688 mmHg 30%
    13:00 +27°C° 0 mm 4 m/S 688 mmHg 28%
    14:00 +28°C° 0 mm 4 m/S 687 mmHg 27%
    15:00 +28°C° 0 mm 4 m/S 687 mmHg 26%
    16:00 +28°C° 0 mm 4 m/S 687 mmHg 25%
    17:00 +27°C° 0 mm 4 m/S 687 mmHg 28%
    18:00 +26°C° 0 mm 4 m/S 687 mmHg 31%
    19:00 +25°C° 0 mm 4 m/S 687 mmHg 34%
    20:00 +24°C° 0 mm 3 m/S 687 mmHg 35%
    21:00 +23°C° 0 mm 2 m/S 687 mmHg 37%
    22:00 +23°C° 0 mm 2 m/S 687 mmHg 39%
    23:00 +21°C° 0 mm 2 m/S 687 mmHg 40%
    Mehr zeigen